CW9676 Weather Reports


Display with metric or nautical units.
time (UTC)temp
F
wind
direction
speed
MPH
gust
MPH
rain 1hr
in
rain 24hr
in
rain mn
in
humidity
%
barometer
mb
20260510185400 82 172 8.0 17.0 0.00 0.00 0.00 14 1005.6
20260510184354 83 191 8.0 17.0 0.00 0.00 0.00 12 1005.6
20260510182235 81 233 6.0 12.0 0.00 0.00 0.00 14 1005.9
20260510181200 81 246 5.0 11.0 0.00 0.00 0.00 14 1005.9
20260510180130 80 243 5.0 14.0 0.00 0.00 0.00 15 1006.0
20260510175134 81 220 5.0 14.0 0.00 0.00 0.00 15 1005.9
20260510174155 81 48 4.0 11.0 0.00 0.00 0.00 15 1006.1
20260510173143 80 285 5.0 12.0 0.00 0.00 0.00 14 1006.1
20260510172128 81 256 5.0 12.0 0.00 0.00 0.00 14 1006.1
20260510165938 80 64 3.0 6.0 0.00 0.00 0.00 16 1006.2
20260510164947 78 316 1.0 12.0 0.00 0.00 0.00 17 1006.2
20260510163954 79 297 5.0 12.0 0.00 0.00 0.00 17 1006.2
20260510163000 79 325 5.0 11.0 0.00 0.00 0.00 17 1006.1
20260510162000 77 173 3.0 9.0 0.00 0.00 0.00 18 1006.1
20260510160929 77 258 4.0 9.0 0.00 0.00 0.00 18 1006.2
20260510155954 76 216 3.0 9.0 0.00 0.00 0.00 19 1006.2
20260510153839 75 235 5.0 11.0 0.00 0.00 0.00 21 1006.1
20260510152855 74 140 3.0 9.0 0.00 0.00 0.00 21 1006.1
20260510151857 73 198 2.0 5.0 0.00 0.00 0.00 21 1006.0
20260510150854 74 133 3.0 6.0 0.00 0.00 0.00 21 1006.0
20260510144816 73 26 2.0 12.0 0.00 0.00 0.00 21 1005.9
20260510140415 67 220 3.0 5.0 0.00 0.00 0.00 24 1005.8
20260510135403 66 229 2.0 8.0 0.00 0.00 0.00 25 1005.6
20260510134328 64 248 3.0 8.0 0.00 0.00 0.00 26 1005.5
20260510133300 64 171 1.0 4.0 0.00 0.00 0.00 26 1005.3
20260510132235 63 180 1.0 3.0 0.00 0.00 0.00 27 1005.2
20260510131210 62 217 2.0 4.0 0.00 0.00 0.00 27 1005.1
20260510130217 62 256 3.0 8.0 0.00 0.00 0.00 26 1005.0
20260510125220 63 4 4.0 8.0 0.00 0.00 0.00 26 1004.8
20260510124242 64 213 3.0 9.0 0.00 0.00 0.00 27 1004.5
20260510123216 65 268 5.0 10.0 0.00 0.00 0.00 26 1004.3
20260510122211 65 290 5.0 10.0 0.00 0.00 0.00 26 1004.2
20260510121139 65 289 5.0 9.0 0.00 0.00 0.00 26 1004.1
20260510120106 65 302 6.0 11.0 0.00 0.00 0.00 26 1004.1
20260510114017 66 298 7.0 12.0 0.00 0.00 0.00 24 1004.4
20260510111849 64 242 3.0 6.0 0.00 0.00 0.00 23 1004.5
20260510110914 64 239 4.0 9.0 0.00 0.00 0.00 23 1004.5
20260510105900 65 236 5.0 9.0 0.00 0.00 0.00 22 1004.6
20260510104908 65 215 4.0 9.0 0.00 0.00 0.00 22 1004.5
20260510103835 65 227 5.0 9.0 0.00 0.00 0.00 22 1004.4
20260510102828 65 223 4.0 11.0 0.00 0.00 0.00 22 1004.3
20260510101847 65 229 5.0 11.0 0.00 0.00 0.00 22 1004.3
20260510100833 65 221 4.0 9.0 0.00 0.00 0.00 22 1004.0
20260510094754 66 230 4.0 10.0 0.00 0.00 0.00 21 1003.6
20260510092533 67 246 7.0 13.0 0.00 0.00 0.00 20 1003.6
20260510091539 67 249 8.0 13.0 0.00 0.00 0.00 20 1003.5
20260510090517 67 238 6.0 11.0 0.00 0.00 0.00 21 1003.5
20260510085454 67 230 4.0 10.0 0.00 0.00 0.00 21 1003.5
20260510084512 67 230 5.0 10.0 0.00 0.00 0.00 20 1003.5
20260510083528 68 242 8.0 15.0 0.00 0.00 0.00 20 1003.5
20260510082535 68 225 8.0 15.0 0.00 0.00 0.00 20 1003.4
20260510080342 69 244 9.0 15.0 0.00 0.00 0.00 20 1003.6
20260510075403 69 231 11.0 19.0 0.00 0.00 0.00 19 1003.5
20260510074340 69 246 11.0 19.0 0.00 0.00 0.00 19 1003.5
20260510073336 68 246 10.0 19.0 0.00 0.00 0.00 20 1003.5
20260510071240 68 252 7.0 14.0 0.00 0.00 0.00 20 1003.8
20260510070211 68 223 7.0 14.0 0.00 0.00 0.00 20 1003.7
20260510065155 69 226 8.0 13.0 0.00 0.00 0.00 20 1003.8
20260510064148 69 232 7.0 13.0 0.00 0.00 0.00 20 1003.8
20260510063151 69 236 7.0 19.0 0.00 0.00 0.00 19 1003.7
20260510062155 69 184 8.0 19.0 0.00 0.00 0.00 19 1003.8
20260510061150 70 234 9.0 16.0 0.00 0.00 0.00 19 1003.7
20260510060128 70 228 9.0 18.0 0.00 0.00 0.00 19 1003.6
20260510055152 70 195 9.0 18.0 0.00 0.00 0.00 18 1003.6
20260510054158 71 228 11.0 18.0 0.00 0.00 0.00 18 1003.6
20260510053157 71 223 11.0 20.0 0.00 0.00 0.00 18 1003.4
20260510052123 71 223 10.0 20.0 0.00 0.00 0.00 18 1003.5
20260510051143 71 236 10.0 18.0 0.00 0.00 0.00 18 1003.5
20260510044942 71 253 8.0 17.0 0.00 0.00 0.00 18 1003.4
20260510043943 71 222 7.0 13.0 0.00 0.00 0.00 17 1003.4
20260510042909 71 214 7.0 13.0 0.00 0.00 0.00 17 1003.2
20260510041910 71 227 7.0 12.0 0.00 0.00 0.00 16 1003.2
20260510040934 71 231 7.0 13.0 0.00 0.00 0.00 16 1003.1
20260510034807 71 217 7.0 12.0 0.00 0.00 0.00 16 1002.8
20260510033806 71 233 5.0 10.0 0.00 0.00 0.00 16 1002.8
20260510032734 71 240 5.0 10.0 0.00 0.00 0.00 16 1002.5
20260510031711 72 229 5.0 9.0 0.00 0.00 0.00 16 1002.5
20260510025532 73 223 6.0 12.0 0.00 0.00 0.00 15 1002.1
20260510024507 73 227 7.0 14.0 0.00 0.00 0.00 15 1001.9
20260510023527 74 4 7.0 15.0 0.00 0.00 0.00 14 1001.8
20260510021350 75 200 9.0 14.0 0.00 0.00 0.00 14 1001.4
20260510020358 76 173 9.0 17.0 0.00 0.00 0.00 13 1001.3
20260510015335 77 162 11.0 17.0 0.00 0.00 0.00 13 1001.2
20260510014316 77 233 12.0 23.0 0.00 0.00 0.00 13 1001.1
20260510013324 78 4 12.0 23.0 0.00 0.00 0.00 12 1001.0
20260510012341 79 173 14.0 25.0 0.00 0.00 0.00 12 1000.9
20260510010222 80 211 14.0 24.0 0.00 0.00 0.00 12 1000.9
20260510005216 81 214 13.0 22.0 0.00 0.00 0.00 12 1000.8
20260510004208 81 186 13.0 24.0 0.00 0.00 0.00 12 1000.8
20260510003212 81 167 15.0 24.0 0.00 0.00 0.00 12 1000.8
20260510002233 82 179 12.0 27.0 0.00 0.00 0.00 12 1000.8
20260510001212 83 165 13.0 27.0 0.00 0.00 0.00 11 1000.6
20260509235020 83 157 13.0 25.0 0.00 0.00 0.00 12 1000.6
20260509233954 83 182 15.0 25.0 0.00 0.00 0.00 12 1000.6
20260509232949 85 168 10.0 25.0 0.00 0.00 0.00 12 1000.6
20260509231920 83 148 13.0 25.0 0.00 0.00 0.00 12 1000.8
20260509230926 84 212 12.0 21.0 0.00 0.00 0.00 12 1000.8
20260509224828 86 200 9.0 32.0 0.00 0.00 0.00 11 1001.1
20260509223821 84 153 13.0 32.0 0.00 0.00 0.00 11 1001.2
20260509222750 85 105 9.0 19.0 0.00 0.00 0.00 12 1001.1
20260509221740 83 142 10.0 24.0 0.00 0.00 0.00 12 1001.6
20260509215650 84 194 11.0 21.0 0.00 0.00 0.00 12 1001.8
20260509214708 85 174 10.0 18.0 0.00 0.00 0.00 12 1002.2
20260509210253 84 198 9.0 18.0 0.00 0.00 0.00 12 1002.8
20260509205251 84 76 9.0 22.0 0.00 0.00 0.00 12 1003.2
20260509203159 84 134 7.0 17.0 0.00 0.00 0.00 12 1003.4
20260509202135 84 223 8.0 17.0 0.00 0.00 0.00 12 1003.5
20260509201147 84 91 5.0 16.0 0.00 0.00 0.00 12 1003.6
20260509200130 84 134 7.0 17.0 0.00 0.00 0.00 12 1003.8
20260509195122 83 160 8.0 19.0 0.00 0.00 0.00 11 1004.1
20260509194122 83 209 9.0 19.0 0.00 0.00 0.00 11 1004.1
20260509193123 83 253 8.0 16.0 0.00 0.00 0.00 11 1004.1
20260509192130 83 238 7.0 16.0 0.00 0.00 0.00 12 1004.3
20260509190007 82 207 10.0 20.0 0.00 0.00 0.00 12 1004.5